Powrót do katalogu

NOAA 16 DEB

AktywnyPO
NORAD 42405·DEBRIS·🇺🇸 United States

Wystrzelony Sep 21, 2000 z Vandenberg Space Force Base

Loading…

Następne Przeloty (najbliższe 24 godziny)

TLE

ŚwieżeSource: Space-Track

Epoka: Sep 13, 2026, 12:22 UTC

1 42405U 00055SZ  26256.51532250  .00004836  00000-0  11274-2 0  9997
2 42405  99.0154 154.6019 0020849 210.6007 149.3973 14.55171113546673

Śledź NOAA 16 DEB w czasie rzeczywistym z AllMySat

Download on the App Store